Location: Pandora
(40.9481°N, 83.9611°W)
Time: 20:06:49
(UTC-04:00)

N. Korean satellite - Pass Details

Date: 25 September 2021
Orbit: 450 x 495 km, 97.3° (Epoch: 25 October)

Event Time Altitude Azimuth Distance (km) Brightness Sun altitude
Rises 05:49:43 0° 34° (NE) 2,531 11.0 -18.9°
Reaches altitude 10° 05:52:45 10° 63° (ENE) 1,658 10.5 -18.4°
Maximum altitude 05:54:28 13° 92° (E) 1,484 10.1 -18.0°
Drops below altitude 10° 05:56:10 10° 121° (ESE) 1,663 9.9 -17.7°
Sets 05:59:13 0° 150° (SSE) 2,546 10.4 -17.2°
